Погода в Долгом

Россия / Орловская область     52°48′38″N   36°34′36″E
темп.,
°C
ветер,
м/с
пор.,
м/с
влажн.,
%
обл.,
%
осадки,
мм/ч
давл.,
гПа
погр.,
м
15 мая, сб
сб1500:00+15ююз339388 0.7 100937
03:00+14ю22930 0.7 100926
06:00+14ю37942 0.0 1008149
09:00+17ююз6981100 0.0 1010461
12:00+20ююз57623 0.0 10101347
15:00+20ююз79583 0.3 10102004
18:00+18ююз611785 1.4 1011893
21:00+13ю411925 1.6 1012271
16 мая, вс
вс1600:00+12ю48940 0.0 1013149
03:00+11ююз36934 0.0 1013108
06:00+12ю3691100 0.0 1014138
09:00+17ююз46777 0.0 1014488
12:00+20ююз57621 0.0 10141298
15:00+21юз465533 0.1 10141801
18:00+21зюз2367100 0.0 1013236
21:00+16ссв227869 0.0 101411
17 мая, пн
пн1700:00+14всв468575 0.0 101375
03:00+13всв4109054 0.5 1013178
06:00+14всв5119344 0.1 1012242
09:00+19в7117442 0.1 1010429
12:00+23вюв711585 0.0 1009751
15:00+25вюв814598 0.0 10081607
18:00+22юв8156491 0.0 1006707
21:00+18юв51477100 0.0 1007320
18 мая, вт
вт1800:00+16юв5138577 0.0 1006288
03:00+15юв51288100 0.0 1005239
06:00+16юв41192100 0.0 1005305
09:00+19ююв71275100 0.0 1005751
12:00+20ююв9127012 0.0 10051141
15:00+17ю81283100 0.6 1006923
18:00+19ю6108075 0.6 1006996
21:00+15ююв41195100 2.7 1006242
19 мая, ср
ср1900:00+15ююв51292100 0.4 1005286
03:00+13ююв4996100 0.7 1004254
06:00+14ююв61096100 1.4 1003524
09:00+13ююз4994100 3.4 1003590
12:00+15ю5887100 1.9 1002685
15:00+15ююз7982100 5.2 1002932
18:00+11зюз81394100 2.2 1006845
21:00+10юз7129395 3.0 1009611